Regional Weather Roundup
Issued by NWS

Home | Current Version | Previous Version | Graphics & Text | Print | Product List | Glossary On
Versions: 1 2 3 4 5 6 7 8 9 10 11 12 13 14 15 16 17 18 19 20 21 22 23 24 25 26 27 28 29 30 31 32 33 34 35 36 37 38 39 40 41 42 43 44 45 46 47 48 49 50
000
ASUS43 KBIS 041910
RWRND

NORTH DAKOTA REGIONAL WEATHER ROUNDUP
NATIONAL WEATHER SERVICE BISMARCK ND
200 PM CDT MON MAY 04 2015

NOTE: "FAIR" INDICATES FEW OR NO CLOUDS BELOW 12,000 FEET WITH NO
SIGNIFICANT WEATHER AND/OR OBSTRUCTIONS TO VISIBILITY.


NDZ001>003-009>011-017-042000-
NORTHWEST NORTH DAKOTA

CITY           SKY/WX    TMP DP  RH WIND       PRES   REMARKS
WILLISTON      SUNNY     71  26  18 S13G22    30.09F
MINOT          SUNNY     66  22  18 S8        30.16F
MINOT AFB      MOSUNNY   70  25  18 VRB7G20   30.14F
$$

NDZ018>021-031>035-040>046-042000-
SOUTHWEST NORTH DAKOTA

CITY           SKY/WX    TMP DP  RH WIND       PRES   REMARKS
BISMARCK       SUNNY     67  24  19 SE8G18    30.20F
DICKINSON      SUNNY     64  32  30 S24G31    30.14F
GARRISON         N/A     68  25  19 SE15      30.16F
HETTINGER ARPT PTSUNNY   57  36  45 S21       30.19F
$$

NDZ004>008-012>016-024-026-027-054-042000-
NORTHEAST NORTH DAKOTA

CITY           SKY/WX    TMP DP  RH WIND       PRES   REMARKS
GRAND FORKS    PTSUNNY   65  26  23 CALM      30.21F
GRND FRKS AFB  MOSUNNY   67  28  23 VRB5      30.21F
DEVILS LAKE    SUNNY     63  25  23 S7        30.20F
$$

NDZ022-023-025-028>030-036>039-047>053-042000-
SOUTHEAST NORTH DAKOTA

CITY           SKY/WX    TMP DP  RH WIND       PRES   REMARKS
FARGO          PTSUNNY   66  29  24 SW8       30.21F
JAMESTOWN      MOSUNNY   64  23  21 E5        30.21F
$$



USA.gov is the U.S. government's official web portal to all federal, state and local government web resources and services.